| time (UTC) | temp F | wind direction | speed knots | gust knots | rain 1hr in | rain 24hr in | rain mn in | humidity % | barometer mb |
| 20260505041514 | 55 | 131 | 0.0 | 0.0 | 0.00 | 0.00 | 0.00 | 71 | 1013.6 |
| 20260505040011 | 57 | 131 | 0.0 | 0.0 | 0.00 | 0.00 | 0.00 | 68 | 1013.5 |
| 20260505034515 | 58 | 131 | 0.0 | 0.0 | 0.00 | 0.00 | 0.00 | 66 | 1013.6 |
| 20260505033026 | 58 | 131 | 0.0 | 0.0 | 0.00 | 0.00 | 0.00 | 66 | 1013.7 |
| 20260505031533 | 59 | 131 | 0.0 | 0.9 | 0.00 | 0.00 | 0.00 | 65 | 1013.9 |
| 20260505030018 | 58 | 131 | 0.0 | 0.9 | 0.00 | 0.00 | 0.00 | 64 | 1014.0 |
| 20260505024535 | 59 | 131 | 0.0 | 0.0 | 0.00 | 0.00 | 0.00 | 64 | 1013.9 |
| 20260505023052 | 59 | 131 | 0.0 | 0.0 | 0.00 | 0.00 | 0.00 | 62 | 1013.8 |
| 20260505021548 | 60 | 131 | 0.0 | 0.9 | 0.00 | 0.00 | 0.00 | 62 | 1013.8 |
| 20260505020054 | 60 | 131 | 0.0 | 0.0 | 0.00 | 0.00 | 0.00 | 62 | 1013.6 |
| 20260505014510 | 61 | 131 | 0.0 | 0.0 | 0.00 | 0.00 | 0.00 | 61 | 1013.4 |
| 20260505013056 | 61 | 131 | 0.0 | 0.9 | 0.00 | 0.00 | 0.00 | 61 | 1013.1 |
| 20260505011551 | 62 | 130 | 0.0 | 0.9 | 0.00 | 0.00 | 0.00 | 59 | 1013.1 |
| 20260505010046 | 63 | 130 | 0.0 | 0.9 | 0.00 | 0.00 | 0.00 | 58 | 1013.1 |
| 20260505004553 | 64 | 131 | 0.0 | 0.9 | 0.00 | 0.00 | 0.00 | 55 | 1012.9 |
| 20260505003050 | 65 | 131 | 0.0 | 0.9 | 0.00 | 0.00 | 0.00 | 53 | 1012.7 |
| 20260505001559 | 67 | 131 | 0.0 | 0.0 | 0.00 | 0.00 | 0.00 | 50 | 1012.6 |
| 20260505000116 | 68 | 131 | 0.0 | 2.6 | 0.00 | 0.00 | 0.00 | 48 | 1012.6 |
| 20260504234558 | 69 | 131 | 0.0 | 3.5 | 0.00 | 0.00 | 0.00 | 45 | 1012.4 |
| 20260504233101 | 70 | 130 | 0.0 | 2.6 | 0.00 | 0.00 | 0.00 | 44 | 1012.3 |
| 20260504231602 | 70 | 131 | 0.0 | 1.7 | 0.00 | 0.00 | 0.00 | 43 | 1012.1 |
| 20260504231501 | 70 | 131 | 0.0 | 1.7 | 0.00 | 0.00 | 0.00 | 43 | 1012.1 |
| 20260504230106 | 71 | 130 | 0.9 | 5.2 | 0.00 | 0.00 | 0.00 | 41 | 1012.1 |
| 20260504230005 | 71 | 131 | 0.9 | 5.2 | 0.00 | 0.00 | 0.00 | 41 | 1012.1 |
| 20260504224552 | 71 | 131 | 0.0 | 3.5 | 0.00 | 0.00 | 0.00 | 40 | 1012.1 |
| 20260504223104 | 71 | 131 | 0.0 | 4.3 | 0.00 | 0.00 | 0.00 | 37 | 1012.2 |
| 20260504221605 | 71 | 131 | 0.0 | 3.5 | 0.00 | 0.00 | 0.00 | 36 | 1012.2 |
| 20260504220002 | 71 | 130 | 0.9 | 5.2 | 0.00 | 0.00 | 0.00 | 36 | 1012.3 |
| 20260504214559 | 71 | 131 | 0.9 | 4.3 | 0.00 | 0.00 | 0.00 | 36 | 1012.2 |
| 20260504213004 | 72 | 131 | 0.0 | 3.5 | 0.00 | 0.00 | 0.00 | 36 | 1012.2 |
| 20260504211503 | 73 | 131 | 0.0 | 4.3 | 0.00 | 0.00 | 0.00 | 37 | 1012.3 |
| 20260504210004 | 73 | 131 | 0.0 | 3.5 | 0.00 | 0.00 | 0.00 | 34 | 1012.2 |
| 20260504204505 | 74 | 130 | 0.0 | 1.7 | 0.00 | 0.00 | 0.00 | 31 | 1012.5 |
| 20260504203059 | 73 | 131 | 0.0 | 0.9 | 0.00 | 0.00 | 0.00 | 33 | 1012.4 |
| 20260504201530 | 73 | 131 | 0.0 | 1.7 | 0.00 | 0.00 | 0.00 | 33 | 1012.4 |
| 20260504200030 | 73 | 130 | 1.7 | 5.2 | 0.00 | 0.00 | 0.00 | 34 | 1012.5 |
| 20260504194531 | 74 | 131 | 0.0 | 1.7 | 0.00 | 0.00 | 0.00 | 37 | 1012.7 |
| 20260504193034 | 74 | 131 | 0.0 | 0.9 | 0.00 | 0.00 | 0.00 | 39 | 1012.9 |
| 20260504191540 | 73 | 131 | 0.0 | 0.9 | 0.00 | 0.00 | 0.00 | 39 | 1013.2 |
| 20260504190036 | 73 | 131 | 0.0 | 2.6 | 0.00 | 0.00 | 0.00 | 38 | 1013.3 |
| 20260504184535 | 72 | 130 | 0.0 | 2.6 | 0.00 | 0.00 | 0.00 | 38 | 1013.5 |
| 20260504183036 | 73 | 130 | 0.0 | 1.7 | 0.00 | 0.00 | 0.00 | 41 | 1013.8 |
| 20260504181518 | 72 | 131 | 0.0 | 2.6 | 0.00 | 0.00 | 0.00 | 41 | 1013.9 |
| 20260504180019 | 72 | 130 | 0.0 | 0.9 | 0.00 | 0.00 | 0.00 | 39 | 1014.2 |
| 20260504174522 | 72 | 130 | 0.0 | 1.7 | 0.00 | 0.00 | 0.00 | 41 | 1014.3 |
| 20260504173022 | 71 | 131 | 0.0 | 1.7 | 0.00 | 0.00 | 0.00 | 41 | 1014.7 |
| 20260504171513 | 71 | 130 | 0.0 | 1.7 | 0.00 | 0.00 | 0.00 | 41 | 1014.8 |
| 20260504081529 | 38 | 131 | 0.0 | 0.0 | 0.00 | 0.00 | 0.00 | 90 | 1016.5 |
| 20260504050020 | 42 | 131 | 0.0 | 0.0 | 0.00 | 0.00 | 0.00 | 84 | 1016.4 |
| 20260504044527 | 43 | 131 | 0.0 | 0.0 | 0.00 | 0.00 | 0.00 | 83 | 1016.6 |
| 20260504043023 | 43 | 131 | 0.0 | 0.0 | 0.00 | 0.00 | 0.00 | 82 | 1016.4 |